EWG8FH EDDL-EDDF

Flight info

Callsign EWG8FH
Flight time 0h 36m
Altitude 23000
Route COL5Z COL T911 ROLIS ROLIS5A
Aircraft A320/M-SDE3FGHIRWY/LB1

Departure

Time 2026-05-05 19:01
Airport Düsseldorf Airport (EDDL)

Arrival

Time 2026-05-05 19:37
Airport Frankfurt Main Airport (EDDF)
Time Latitude Longitude Altitude Speed Heading
2026-05-05 18:27 51.28155 6.76728 131 ft 0 kts 276°
2026-05-05 18:42 51.28155 6.76793 127 ft 3 kts 254°
2026-05-05 18:42 51.28159 6.76810 125 ft 3 kts 241°
2026-05-05 18:42 51.28169 6.76831 128 ft 2 kts 208°
2026-05-05 18:42 51.28178 6.76837 127 ft 2 kts 186°
2026-05-05 18:43 51.28227 6.76846 130 ft 3 kts 185°
2026-05-05 18:43 51.28239 6.76848 130 ft 3 kts 183°
2026-05-05 18:43 51.28264 6.76848 129 ft 3 kts 168°
2026-05-05 18:44 51.28285 6.76833 124 ft 3 kts 142°
2026-05-05 18:44 51.28302 6.76812 124 ft 3 kts 142°
2026-05-05 18:44 51.28315 6.76795 124 ft 3 kts 142°
2026-05-05 18:44 51.28329 6.76779 123 ft 1 kts 142°
2026-05-05 18:45 51.28342 6.76762 124 ft 3 kts 130°
2026-05-05 18:45 51.28352 6.76736 123 ft 3 kts 106°
2026-05-05 18:45 51.28355 6.76706 125 ft 3 kts 79°
2026-05-05 18:45 51.28349 6.76676 124 ft 3 kts 61°
2026-05-05 18:46 51.28338 6.76648 125 ft 3 kts 52°
2026-05-05 18:46 51.28332 6.76635 124 ft 0 kts 53°
2026-05-05 18:48 51.28346 6.76664 124 ft 4 kts 52°
2026-05-05 18:48 51.28351 6.76675 123 ft 4 kts 49°
2026-05-05 18:49 51.28413 6.76621 125 ft 14 kts 252°
2026-05-05 18:49 51.28352 6.76486 124 ft 17 kts 233°
2026-05-05 18:49 51.28294 6.76362 125 ft 15 kts 233°
2026-05-05 18:49 51.28245 6.76260 126 ft 14 kts 231°
2026-05-05 18:50 51.28182 6.76130 126 ft 18 kts 233°
2026-05-05 18:50 51.28124 6.76008 127 ft 14 kts 233°
2026-05-05 18:50 51.28058 6.75865 127 ft 18 kts 234°
2026-05-05 18:50 51.27988 6.75723 128 ft 13 kts 232°
2026-05-05 18:51 51.27947 6.75637 128 ft 0 kts 233°
2026-05-05 18:53 51.27946 6.75637 128 ft 1 kts 233°
2026-05-05 18:53 51.27928 6.75598 125 ft 8 kts 233°
2026-05-05 18:54 51.27912 6.75564 126 ft 0 kts 233°
2026-05-05 18:55 51.27908 6.75555 125 ft 6 kts 233°
2026-05-05 18:56 51.27878 6.75490 126 ft 6 kts 233°
2026-05-05 18:56 51.27858 6.75449 123 ft 0 kts 232°
2026-05-05 18:58 51.27852 6.75436 125 ft 6 kts 232°
2026-05-05 18:58 51.27835 6.75372 124 ft 7 kts 272°
2026-05-05 18:58 51.27868 6.75328 124 ft 7 kts 335°
2026-05-05 18:58 51.27889 6.75312 124 ft 0 kts 334°
2026-05-05 18:59 51.27931 6.75280 122 ft 13 kts 335°
2026-05-05 19:00 51.28004 6.75293 118 ft 9 kts 47°
2026-05-05 19:00 51.28013 6.75309 120 ft 0 kts 52°
2026-05-05 19:00 51.28017 6.75318 122 ft 7 kts 52°
2026-05-05 19:00 51.28201 6.75702 128 ft 80 kts 53°
2026-05-05 19:01 51.28528 6.76387 127 ft 124 kts 52°
2026-05-05 19:01 51.29312 6.78084 525 ft 153 kts 52°
2026-05-05 19:01 51.29919 6.79473 1260 ft 152 kts 53°
2026-05-05 19:01 51.30563 6.80913 1697 ft 169 kts 51°
2026-05-05 19:02 51.31348 6.82521 2066 ft 193 kts 51°
2026-05-05 19:02 51.32223 6.84315 2526 ft 217 kts 52°
2026-05-05 19:02 51.33214 6.86353 3014 ft 241 kts 53°
2026-05-05 19:02 51.34245 6.88564 3707 ft 253 kts 53°
2026-05-05 19:03 51.35091 6.90937 4498 ft 261 kts 73°
2026-05-05 19:03 51.35195 6.94006 5376 ft 267 kts 99°
2026-05-05 19:03 51.35001 6.95912 5947 ft 270 kts 99°
2026-05-05 19:03 51.34682 6.98984 6822 ft 275 kts 100°
2026-05-05 19:04 51.34331 7.02047 7683 ft 279 kts 106°
2026-05-05 19:04 51.33461 7.04814 8503 ft 283 kts 130°
2026-05-05 19:04 51.31861 7.06873 9373 ft 286 kts 151°
2026-05-05 19:04 51.30137 7.08383 10092 ft 294 kts 152°
2026-05-05 19:05 51.28264 7.10001 10373 ft 317 kts 152°
2026-05-05 19:05 51.26226 7.11758 10597 ft 341 kts 152°
2026-05-05 19:05 51.24081 7.13604 10944 ft 357 kts 152°
2026-05-05 19:05 51.21879 7.15505 11591 ft 362 kts 151°
2026-05-05 19:06 51.19539 7.17543 12368 ft 365 kts 151°
2026-05-05 19:06 51.17387 7.19420 13091 ft 368 kts 151°
2026-05-05 19:06 51.15100 7.21409 13818 ft 371 kts 152°
2026-05-05 19:06 51.12825 7.23386 14463 ft 374 kts 152°
2026-05-05 19:07 51.10569 7.25343 15074 ft 377 kts 152°
2026-05-05 19:07 51.08259 7.27346 15648 ft 381 kts 152°
2026-05-05 19:07 51.05656 7.29601 16305 ft 384 kts 152°
2026-05-05 19:07 51.03563 7.31419 16842 ft 387 kts 150°
2026-05-05 19:08 51.01384 7.34170 17402 ft 392 kts 131°
2026-05-05 19:08 50.99955 7.37753 17955 ft 396 kts 115°
2026-05-05 19:08 50.98877 7.41741 18554 ft 390 kts 114°
2026-05-05 19:08 50.97866 7.45601 18766 ft 370 kts 114°
2026-05-05 19:09 50.96838 7.49548 18826 ft 366 kts 114°
2026-05-05 19:09 50.95892 7.53178 18826 ft 365 kts 114°
2026-05-05 19:09 50.94918 7.56923 18530 ft 360 kts 114°
2026-05-05 19:09 50.93972 7.60596 18095 ft 358 kts 114°
2026-05-05 19:10 50.93022 7.64286 17588 ft 356 kts 114°
2026-05-05 19:10 50.92088 7.67901 17095 ft 354 kts 114°
2026-05-05 19:10 50.91131 7.71603 16610 ft 352 kts 114°
2026-05-05 19:10 50.90204 7.75175 16155 ft 349 kts 114°
2026-05-05 19:11 50.89283 7.78719 15701 ft 347 kts 114°
2026-05-05 19:11 50.88363 7.82245 15235 ft 345 kts 114°
2026-05-05 19:11 50.87373 7.85752 14880 ft 343 kts 122°
2026-05-05 19:11 50.85897 7.88615 14799 ft 341 kts 140°
2026-05-05 19:12 50.83866 7.90603 14816 ft 341 kts 159°
2026-05-05 19:12 50.81561 7.91380 14814 ft 340 kts 179°
2026-05-05 19:12 50.79207 7.91016 14815 ft 341 kts 188°
2026-05-05 19:12 50.76857 7.90445 14813 ft 341 kts 188°
2026-05-05 19:13 50.74514 7.89876 14813 ft 342 kts 188°
2026-05-05 19:13 50.72122 7.89295 14812 ft 342 kts 188°
2026-05-05 19:13 50.69804 7.88735 14814 ft 342 kts 188°
2026-05-05 19:13 50.67458 7.88177 14812 ft 341 kts 188°
2026-05-05 19:14 50.65106 7.87617 14814 ft 341 kts 188°
2026-05-05 19:14 50.62751 7.87054 14815 ft 341 kts 188°
2026-05-05 19:14 50.60382 7.86492 14804 ft 340 kts 189°
2026-05-05 19:14 50.58049 7.85940 14418 ft 337 kts 189°
2026-05-05 19:15 50.55737 7.85395 13985 ft 335 kts 189°
2026-05-05 19:15 50.53436 7.84851 13570 ft 334 kts 189°
2026-05-05 19:15 50.51916 7.84490 13257 ft 332 kts 189°
2026-05-05 19:15 50.48847 7.83763 12652 ft 329 kts 188°
2026-05-05 19:16 50.47305 7.83567 12355 ft 328 kts 180°
2026-05-05 19:16 50.45090 7.84088 11927 ft 327 kts 162°
2026-05-05 19:16 50.43070 7.85771 11489 ft 327 kts 142°
2026-05-05 19:16 50.41595 7.88420 11039 ft 328 kts 121°
2026-05-05 19:17 50.40756 7.91759 10622 ft 328 kts 108°
2026-05-05 19:17 50.40082 7.95236 10174 ft 326 kts 108°
2026-05-05 19:17 50.39418 7.98666 9870 ft 325 kts 108°
2026-05-05 19:17 50.38756 8.02073 9820 ft 325 kts 108°
2026-05-05 19:18 50.38097 8.05441 9827 ft 325 kts 109°
2026-05-05 19:18 50.37433 8.08826 9825 ft 326 kts 109°
2026-05-05 19:18 50.36761 8.12242 9828 ft 326 kts 109°
2026-05-05 19:18 50.36091 8.15634 9805 ft 326 kts 109°
2026-05-05 19:19 50.35431 8.18965 9686 ft 315 kts 109°
2026-05-05 19:19 50.34799 8.22151 9547 ft 304 kts 109°
2026-05-05 19:19 50.34174 8.25298 9321 ft 296 kts 109°
2026-05-05 19:19 50.33465 8.28843 8918 ft 293 kts 109°
2026-05-05 19:20 50.32931 8.31512 8815 ft 292 kts 109°
2026-05-05 19:20 50.32323 8.34553 8826 ft 293 kts 109°
2026-05-05 19:20 50.31702 8.37655 8831 ft 293 kts 110°
2026-05-05 19:20 50.31101 8.40645 8831 ft 294 kts 110°
2026-05-05 19:21 50.30487 8.43693 8831 ft 293 kts 110°
2026-05-05 19:21 50.29876 8.46735 8820 ft 294 kts 110°
2026-05-05 19:21 50.29240 8.49904 8816 ft 294 kts 110°
2026-05-05 19:21 50.28613 8.53023 8820 ft 294 kts 110°
2026-05-05 19:22 50.28008 8.56011 8818 ft 294 kts 110°
2026-05-05 19:22 50.27394 8.59043 8807 ft 292 kts 110°
2026-05-05 19:22 50.26788 8.62023 8697 ft 281 kts 110°
2026-05-05 19:22 50.26211 8.64870 8569 ft 270 kts 110°
2026-05-05 19:23 50.25655 8.67621 8419 ft 261 kts 110°
2026-05-05 19:23 50.25109 8.70307 8144 ft 257 kts 110°
2026-05-05 19:23 50.24573 8.72929 7868 ft 255 kts 110°
2026-05-05 19:23 50.24027 8.75587 7818 ft 255 kts 110°
2026-05-05 19:24 50.23483 8.78239 7820 ft 256 kts 110°
2026-05-05 19:24 50.22982 8.80907 7819 ft 257 kts 106°
2026-05-05 19:24 50.22661 8.83663 7820 ft 258 kts 99°
2026-05-05 19:24 50.22536 8.86456 7820 ft 259 kts 92°
2026-05-05 19:25 50.22606 8.89262 7820 ft 260 kts 86°
2026-05-05 19:25 50.22868 8.92081 7821 ft 261 kts 80°
2026-05-05 19:25 50.23316 8.94824 7822 ft 262 kts 73°
2026-05-05 19:25 50.23924 8.97504 7790 ft 261 kts 71°
2026-05-05 19:26 50.24547 9.00163 7456 ft 260 kts 71°
2026-05-05 19:26 50.25164 9.02812 7119 ft 259 kts 71°
2026-05-05 19:26 50.25777 9.05443 6794 ft 257 kts 71°
2026-05-05 19:26 50.26389 9.08062 6486 ft 256 kts 71°
2026-05-05 19:27 50.26992 9.10666 6160 ft 255 kts 72°
2026-05-05 19:27 50.27215 9.13409 6005 ft 248 kts 102°
2026-05-05 19:27 50.26561 9.15774 6015 ft 243 kts 134°
2026-05-05 19:27 50.25203 9.17285 6017 ft 235 kts 166°
2026-05-05 19:28 50.23616 9.17443 5858 ft 227 kts 196°
2026-05-05 19:28 50.22257 9.16266 5470 ft 223 kts 227°
2026-05-05 19:28 50.21396 9.14306 5106 ft 223 kts 240°
2026-05-05 19:28 50.20587 9.12241 5013 ft 222 kts 236°
2026-05-05 19:29 50.19684 9.10268 5017 ft 225 kts 234°
2026-05-05 19:29 50.18760 9.08297 5015 ft 225 kts 234°
2026-05-05 19:29 50.17837 9.06329 5014 ft 225 kts 234°
2026-05-05 19:29 50.16915 9.04363 5017 ft 225 kts 236°
2026-05-05 19:30 50.16155 9.02216 5012 ft 219 kts 246°
2026-05-05 19:30 50.15602 9.00032 5013 ft 215 kts 249°
2026-05-05 19:30 50.15088 8.97836 5015 ft 215 kts 249°
2026-05-05 19:30 50.14578 8.95651 5016 ft 215 kts 249°
2026-05-05 19:31 50.14067 8.93468 5012 ft 215 kts 249°
2026-05-05 19:31 50.13567 8.91332 5008 ft 204 kts 249°
2026-05-05 19:31 50.13250 8.89981 5004 ft 195 kts 249°
2026-05-05 19:31 50.12792 8.88032 5030 ft 185 kts 249°
2026-05-05 19:32 50.12352 8.86164 4956 ft 184 kts 249°
2026-05-05 19:32 50.11914 8.84301 4763 ft 182 kts 249°
2026-05-05 19:32 50.11479 8.82452 4523 ft 181 kts 249°
2026-05-05 19:32 50.11043 8.80606 4264 ft 181 kts 249°
2026-05-05 19:33 50.10604 8.78742 3998 ft 180 kts 249°
2026-05-05 19:33 50.10171 8.76912 3749 ft 180 kts 250°
2026-05-05 19:33 50.09738 8.75077 3486 ft 180 kts 250°
2026-05-05 19:33 50.09307 8.73255 3227 ft 179 kts 250°
2026-05-05 19:34 50.08872 8.71416 2957 ft 179 kts 249°
2026-05-05 19:34 50.08445 8.69614 2711 ft 178 kts 249°
2026-05-05 19:34 50.08018 8.67816 2454 ft 176 kts 250°
2026-05-05 19:35 50.07155 8.64178 1940 ft 164 kts 249°
2026-05-05 19:35 50.06798 8.62676 1731 ft 153 kts 249°
2026-05-05 19:35 50.06447 8.61202 1521 ft 141 kts 249°
2026-05-05 19:35 50.06113 8.59798 1318 ft 137 kts 249°
2026-05-05 19:36 50.05783 8.58407 1108 ft 138 kts 249°
2026-05-05 19:36 50.05451 8.56999 914 ft 139 kts 249°
2026-05-05 19:36 50.05119 8.55588 726 ft 139 kts 249°
2026-05-05 19:36 50.04787 8.54181 484 ft 139 kts 248°
2026-05-05 19:37 50.04455 8.52778 363 ft 138 kts 249°
2026-05-05 19:37 50.04185 8.51714 361 ft 64 kts 249°
2026-05-05 19:37 50.04110 8.51406 357 ft 26 kts 249°
2026-05-05 19:37 50.04007 8.51076 356 ft 35 kts 227°
2026-05-05 19:38 50.03883 8.50890 352 ft 7 kts 220°
2026-05-05 19:38 50.03856 8.50856 355 ft 5 kts 218°
2026-05-05 19:38 50.03810 8.50840 350 ft 10 kts 155°
2026-05-05 19:38 50.03781 8.50924 351 ft 9 kts 89°
2026-05-05 19:39 50.03805 8.51033 352 ft 17 kts 69°
2026-05-05 19:39 50.03864 8.51270 352 ft 30 kts 70°
2026-05-05 19:39 50.03935 8.51583 357 ft 31 kts 71°
2026-05-05 19:39 50.04010 8.51898 350 ft 31 kts 69°
2026-05-05 19:40 50.04092 8.52215 354 ft 31 kts 70°
2026-05-05 19:40 50.04164 8.52529 352 ft 32 kts 71°
2026-05-05 19:40 50.04240 8.52841 349 ft 30 kts 68°
2026-05-05 19:40 50.04312 8.53143 351 ft 30 kts 71°
2026-05-05 19:41 50.04381 8.53453 353 ft 31 kts 71°
2026-05-05 19:41 50.04410 8.53736 356 ft 26 kts 86°
2026-05-05 19:41 50.04423 8.53977 349 ft 22 kts 84°
2026-05-05 19:41 50.04439 8.54208 349 ft 21 kts 85°
2026-05-05 19:42 50.04451 8.54424 349 ft 18 kts 85°
2026-05-05 19:42 50.04414 8.54613 351 ft 19 kts 116°
2026-05-05 19:42 50.04320 8.54763 352 ft 21 kts 152°
2026-05-05 19:42 50.04178 8.54847 355 ft 23 kts 159°
2026-05-05 19:43 50.04038 8.54929 357 ft 17 kts 159°
2026-05-05 19:43 50.03933 8.54989 352 ft 15 kts 160°
2026-05-05 19:43 50.03857 8.55042 360 ft 11 kts 129°
2026-05-05 19:43 50.03855 8.55137 360 ft 8 kts 71°
2026-05-05 19:44 50.03870 8.55210 359 ft 7 kts 72°
2026-05-05 19:44 50.03890 8.55301 353 ft 15 kts 71°
2026-05-05 19:44 50.03929 8.55455 355 ft 15 kts 68°
2026-05-05 19:44 50.03968 8.55610 359 ft 15 kts 69°
2026-05-05 19:45 50.04005 8.55767 353 ft 16 kts 70°
2026-05-05 19:45 50.04030 8.55874 357 ft 7 kts 70°
2026-05-05 19:45 50.04044 8.55938 356 ft 6 kts 70°
2026-05-05 19:45 50.04065 8.56026 350 ft 13 kts 70°
2026-05-05 19:46 50.04104 8.56117 355 ft 6 kts 75°
2026-05-05 19:46 50.04133 8.56285 350 ft 20 kts 71°
2026-05-05 19:46 50.04179 8.56499 353 ft 22 kts 71°
2026-05-05 19:46 50.04222 8.56684 351 ft 17 kts 69°
2026-05-05 19:47 50.04294 8.56812 354 ft 16 kts 18°
2026-05-05 19:47 50.04397 8.56841 357 ft 14 kts
2026-05-05 19:47 50.04487 8.56868 350 ft 10 kts 14°
2026-05-05 19:47 50.04553 8.56894 350 ft 9 kts 13°
2026-05-05 19:48 50.04617 8.56918 349 ft 10 kts 14°
2026-05-05 19:48 50.04679 8.56955 356 ft 9 kts 24°
2026-05-05 19:48 50.04744 8.57003 357 ft 12 kts 23°
2026-05-05 19:48 50.04805 8.57041 353 ft 5 kts 23°
2026-05-05 19:49 50.04837 8.57064 355 ft 7 kts 24°
2026-05-05 19:49 50.04863 8.57106 357 ft 5 kts 73°
2026-05-05 19:49 50.04865 8.57138 353 ft 0 kts 83°
2026-05-05 19:49 50.04814 8.57180 356 ft 0 kts 115°